Anoka County, MN

9:28 AM CDT on October 22, 2019 (GMT -0500)
Anoka County / Blaine Airport

Weather History for KANE - August, 2019

Change the Weather History Date:

Thursday, August 29, 2019

  Actual Average Record
Temperature  
Mean Temperature 65 °F -  
Max Temperature 73 °F 76 °F 93 °F (2012)
Min Temperature 57 °F 56 °F 46 °F (2004)
Growing Degree Days 15 (Base 50)    
Moisture  
Dew Point 52 °F    
Average Humidity 71    
Maximum Humidity 88    
Minimum Humidity 41    
Precipitation  
Precipitation 0.00 in - - ()
Sea Level Pressure  
Sea Level Pressure 29.85 in    
Wind  
Wind Speed 8 mph (SW)    
Max Wind Speed 20 mph    
Max Gust Speed 33 mph    
Visibility 10 miles    
Events      
Averages and records for this station are not official NWS values.
T = Trace of Precipitation, MM = Missing Value Source: NWS Daily Summary

Daily Weather History Graph

Daily Weather History Graph

Search for Another Location

Airport or City:

Astronomy

Aug. 29, 2019 Rise Set
Actual Time 6:30 AM CDT 7:55 PM CDT
Civil Twilight 6:00 AM CDT 8:26 PM CDT
Nautical Twilight 5:23 AM CDT 9:03 PM CDT
Astronomical Twilight 4:43 AM CDT 9:42 PM CDT
Moon 5:10 AM CDT (8/29) 7:56 PM CDT (8/29)
Length of Visible Light 14h 26m
Length of Day
13h 25m
Waning Crescent, 1% of the Moon is Illuminated
Aug 29
Waning Crescent
Aug 30
New
Sep 5
First Quarter
Sep 13
Full
Sep 21
Last Quarter

Hourly Weather History & Observations

Time (CDT) Temp. Dew Point Humidity Pressure Visibility Wind Dir Wind Speed Gust Speed Precip Events Conditions
12:15 AM 59.0 °F 53.6 °F 82% 29.88 in 10.0 mi SSW 5.8 mph - N/A   Unknown
12:20 AM 59.0 °F 53.6 °F 82% 29.88 in 10.0 mi SSW 5.8 mph - N/A   Unknown
12:37 AM 59.0 °F 53.6 °F 82% 29.87 in 10.0 mi SSW 5.8 mph - N/A   Unknown
12:55 AM 59.0 °F 53.6 °F 82% 29.87 in 10.0 mi SSW 4.6 mph - N/A   Unknown
1:16 AM 57.2 °F 51.8 °F 82% 29.86 in 10.0 mi South 5.8 mph - N/A   Unknown
1:36 AM 57.2 °F 51.8 °F 82% 29.86 in 10.0 mi South 5.8 mph - N/A   Unknown
1:59 AM 57.2 °F 51.8 °F 82% 29.85 in 10.0 mi South 5.8 mph - N/A   Unknown
2:16 AM 57.2 °F 53.6 °F 88% 29.84 in 10.0 mi South 6.9 mph - N/A   Unknown
2:36 AM 57.2 °F 53.6 °F 88% 29.84 in 10.0 mi South 6.9 mph - N/A   Unknown
2:56 AM 59.0 °F 53.6 °F 82% 29.83 in 10.0 mi South 6.9 mph - N/A   Unknown
3:15 AM 57.2 °F 53.6 °F 88% 29.82 in 10.0 mi South 6.9 mph - N/A   Unknown
3:19 AM 57.2 °F 51.8 °F 82% 29.82 in 10.0 mi South 8.1 mph - N/A   Unknown
3:38 AM 57.2 °F 53.6 °F 88% 29.81 in 10.0 mi South 6.9 mph - N/A   Unknown
3:55 AM 57.2 °F 53.6 °F 88% 29.81 in 10.0 mi South 5.8 mph - N/A   Unknown
4:16 AM 57.2 °F 53.6 °F 88% 29.80 in 10.0 mi South 5.8 mph - N/A   Unknown
4:36 AM 57.2 °F 53.6 °F 88% 29.79 in 10.0 mi South 5.8 mph - N/A   Unknown
4:59 AM 57.2 °F 53.6 °F 88% 29.77 in 10.0 mi South 6.9 mph - N/A   Unknown
5:16 AM 57.2 °F 53.6 °F 88% 29.77 in 10.0 mi South 8.1 mph - N/A   Unknown
5:35 AM 60.8 °F 53.6 °F 77% 29.76 in 10.0 mi South 9.2 mph - N/A   Unknown
5:56 AM 60.8 °F 53.6 °F 77% 29.74 in 10.0 mi South 12.7 mph - N/A   Unknown
6:15 AM 60.8 °F 53.6 °F 77% 29.74 in 10.0 mi SSW 10.4 mph - N/A   Unknown
6:19 AM 60.8 °F 51.8 °F 72% 29.73 in 10.0 mi South 10.4 mph - N/A   Unknown
6:37 AM 62.6 °F 53.6 °F 72% 29.72 in 10.0 mi South 10.4 mph - N/A   Unknown
6:45 AM 62.6 °F 53.6 °F 72% 29.72 in 10.0 mi South 10.4 mph 16.1 mph N/A   Mostly Cloudy
6:56 AM 62.6 °F 53.6 °F 72% 29.71 in 10.0 mi South 11.5 mph - N/A   Unknown
8:45 AM 69.8 °F 59.0 °F 68% 29.72 in 10.0 mi West 13.8 mph 26.5 mph N/A   Partly Cloudy
9:45 AM 71.6 °F 55.4 °F 57% 29.75 in 10.0 mi West 13.8 mph 26.5 mph N/A   Clear
10:45 AM 73.4 °F 53.6 °F 50% 29.78 in 10.0 mi WNW 16.1 mph 27.6 mph N/A   Clear
11:45 AM 73.4 °F 48.2 °F 41% 29.80 in 10.0 mi WNW 16.1 mph 27.6 mph N/A   Clear
12:45 PM 73.4 °F 48.2 °F 41% 29.82 in 10.0 mi WNW 18.4 mph 27.6 mph N/A   Clear
1:45 PM 73.4 °F 48.2 °F 41% 29.84 in 10.0 mi WNW 18.4 mph 25.3 mph N/A   Clear
2:45 PM 73.4 °F 50.0 °F 44% 29.86 in 10.0 mi WNW 18.4 mph 25.3 mph N/A   Partly Cloudy
3:45 PM 73.4 °F 48.2 °F 41% 29.87 in 10.0 mi WNW 18.4 mph 25.3 mph N/A   Partly Cloudy
4:45 PM 71.6 °F 48.2 °F 43% 29.89 in 10.0 mi NW 19.6 mph 33.4 mph N/A   Partly Cloudy
5:45 PM 71.6 °F 48.2 °F 43% 29.91 in 10.0 mi NW 18.4 mph 31.1 mph N/A   Partly Cloudy
6:45 PM 69.8 °F 48.2 °F 46% 29.93 in 10.0 mi NW 16.1 mph 26.5 mph N/A   Partly Cloudy
7:45 PM 66.2 °F 48.2 °F 52% 29.95 in 10.0 mi NW 11.5 mph 18.4 mph N/A   Clear
9:45 PM 60.8 °F 50.0 °F 68% 29.99 in 10.0 mi West 5.8 mph - N/A   Clear
10:15 PM 60.8 °F 50.0 °F 68% 30.00 in 10.0 mi West 5.8 mph - N/A   Unknown
10:36 PM 59.0 °F 50.0 °F 72% 30.01 in 10.0 mi West 6.9 mph - N/A   Unknown
10:59 PM 59.0 °F 50.0 °F 72% 30.02 in 10.0 mi West 5.8 mph - N/A   Unknown
11:16 PM 59.0 °F 50.0 °F 72% 30.03 in 10.0 mi West 5.8 mph - N/A   Unknown
11:36 PM 57.2 °F 50.0 °F 77% 30.04 in 10.0 mi West 5.8 mph - N/A   Unknown
11:56 PM 59.0 °F 51.8 °F 77% 30.04 in 10.0 mi West 4.6 mph - N/A   Unknown